FENGYUN 1C DEB

Satellite information

Favourite Embed

Satellite Type and Status

DEBRISIN ORBIT

Key statistics

Satellite FENGYUN 1C DEB at a glance.

Uptime

9557

Days in orbit

Revolutions

≈ 14.1

Per day

Orbit

SSO

Sun Synchronous Orbit

Inclination

98.5

Latest

Satellite identification and parameters

Extended collection of information and parameters for FENGYUN 1C DEB.

Object identification

Identified? True

Debris? True

Object name: FENGYUN 1C DEB

International designator: 1999-025BSY

Object number (NORAD): 31412

Object ID (CCSDS): 31412

Country: PEOPLES REPUBLIC OF CHINA (PRC)

Current information (Y/N): Y

RCS size: SMALL

Orbital parameters

Period: 102.221 minutes

Inclination: 98.5376 deg

SMA: 7241.928 km

Apoapsis: 926.809 km

Periapsis: 800.776 km

RAAN: 140.8601 deg

Eccentricy: 0.0087016

Argument of periapsis: 63.7848 deg

Mean anomaly: 297.2237 deg

Mean motion: 14.08709684 rev/day

Mean motion (dot): 0.00001843 rev/day2

B* drag term: 0.0010556 1/REarth

Two-line elements (TLE)

Creation date: July 7, 2025, 11:06 p.m.

Reference frame: TEME

Reference center: EARTH

Epoch: July 7, 2025, 8:17 p.m. UTC

TLE line 0: 0 FENGYUN 1C DEB

TLE line 1: 1 31412U 99025BSY 25188.84555736 .00001843 00000-0 10556-2 0 9998

TLE line 2: 2 31412 98.5376 140.8601 0087016 63.7848 297.2237 14.08709684927769

Live tracking on map

Real-time ground track for satellite FENGYUN 1C DEB.

In-orbit conjunctions

A list of the most updated potential collisions computed for object FENGYUN 1C DEB.

Target Orbit TCA Probability of collision Miss distance Type
FAISAT 2V LEO 2024-10-12 19:56:20 0.0001368488 249.0 (m) PAYLOAD

Associated space launch

Chinese polar orbiting meteorological satellite

FENGYUN 1C DEB was lifted into orbit during the mission ‘Long March 4B | Feng Yun 1C’, on board a Long March 4B space rocket.

The launch took place on May 10, 1999, 1:33 a.m. from Launch Complex 7.

For more information about the launch, click the button.

Launch to space Long March 4B | Feng Yun 1C
Long March 4B | Feng Yun 1C

Agency: N/A

Status: Launch Successful

Launch date: May 10, 1999, 1:33 a.m. UTC

Rocket: Long March 4B

Launch pad: Launch Complex 7

Location: Taiyuan Satellite Launch Center, People's Republic of China

...

Latest news about this satellite

There are no fresh news available about this satellite. Check back as we update our databases every day.


Newsletter sign-up

Weekly statistics, charts and insights to help you stay on top of the space industry.